Temp_Advection
nan nan nan nan nan nan nan nan nan nan nan nan nan nan nan nan nan nan nan nan nan nan nan nan nan nan nan nan nan nan nan nan nan nan nan nan nan nan nan nan nan nan nan nan
nan -1 -1 -0 -0 0 0 0 0 -0 -0 0 0 0 -0 -0 -1 -1 -0 -0 -0 0 1 1 0 0 0 0 1 1 1 1 1 1 1 0 0 1 0 0 1 0 0 nan
nan -0 0 0 0 0 0 0 -0 -0 -0 -0 0 0 -0 -0 -0 -1 0 0 -1 -0 3 1 0 0 0 0 1 1 1 1 1 1 1 0 0 0 0 0 1 0 -0 nan
nan 0 -0 0 -0 -0 -0 -0 -0 0 0 0 0 0 0 -0 -0 0 -0 -0 -0 1 2 1 0 1 0 0 1 1 2 2 1 0 0 0 0 0 0 0 0 -0 -0 nan
nan 0 -0 -0 -1 -0 -0 -0 0 0 0 -0 0 0 -0 0 -0 -0 -0 -2 -1 1 3 2 1 1 0 1 2 2 1 1 0 -0 0 0 0 -0 0 0 0 -0 0 nan
nan -0 -0 -1 -0 0 0 -0 -0 -0 0 -0 -0 -0 -0 -0 -0 0 -1 -3 1 3 3 1 1 0 1 2 2 1 1 1 0 0 1 0 -0 0 0 0 -0 -0 0 nan
nan 1 -0 0 0 0 0 -0 0 0 0 -1 0 -0 -1 0 -0 -1 -1 -3 1 3 2 0 0 0 0 1 1 -0 0 0 0 0 0 0 0 0 0 0 -0 0 0 nan
nan -0 -2 -0 -0 -0 0 0 -0 -0 -0 -0 0 -0 -0 0 -1 -0 -1 1 2 3 1 -0 0 -1 -0 0 -1 -1 -1 -1 -0 0 0 0 0 0 0 0 0 0 0 nan
nan -1 -0 -0 -0 -1 -0 -1 -0 -1 -0 -0 -0 -1 -1 0 0 1 1 1 1 2 1 1 0 -0 1 0 -1 -1 -1 -1 -0 0 0 0 0 1 0 0 0 0 0 nan
nan -0 0 0 0 0 -0 -0 0 0 0 -0 -0 -0 -0 0 0 0 0 -1 -0 2 1 -0 -1 1 1 0 0 0 0 0 1 1 0 0 0 0 0 0 0 0 0 nan
nan 0 -0 0 -0 -0 -0 0 -0 -0 -0 -0 0 -0 -0 0 0 0 -1 -3 0 1 0 1 0 1 1 0 0 0 0 1 1 0 0 0 0 -0 -0 -0 0 0 0 nan
nan -0 0 -0 -1 0 -1 -0 -1 0 0 0 0 -2 -0 0 -0 -0 -2 -1 1 2 2 1 0 1 0 -0 -0 0 1 1 1 1 0 -0 -0 0 0 0 0 0 0 nan
nan 0 -0 0 0 0 1 -0 1 0 -0 -0 -0 -3 0 -0 -0 -1 -0 0 1 2 1 -1 -0 -0 -1 -0 0 0 1 1 1 0 -0 -0 -0 0 0 0 0 0 0 nan
nan 0 -1 -0 -0 -0 -0 -1 0 0 -1 -1 -2 -0 -0 0 0 0 -1 -0 2 2 1 -1 -1 -1 -0 0 0 0 0 1 1 -0 -0 -0 0 0 0 0 0 1 1 nan
nan 1 -0 -0 -0 0 0 0 1 0 -0 -0 -1 0 1 0 -0 -1 -1 2 2 1 -0 -2 -1 -1 -0 0 -0 0 0 1 0 0 0 0 1 1 0 1 1 1 1 nan
nan 0 1 0 -0 1 0 -0 0 0 0 -0 1 1 0 -1 0 0 0 1 0 -1 -2 -2 -1 -1 -0 -0 -0 1 1 1 1 1 1 1 1 0 1 1 2 2 1 nan
nan 0 0 -1 1 1 -1 -2 -1 -0 -0 1 -0 0 -0 -0 0 -1 -1 -1 -1 -2 -2 -2 -1 -1 -0 0 1 1 1 1 2 1 1 1 1 2 2 2 2 1 1 nan
nan 0 -0 0 0 -0 -3 -1 0 1 0 -0 0 0 -1 -0 -2 -2 -1 -0 -0 -1 -2 -2 -1 -0 0 1 2 1 1 2 2 1 1 3 2 2 2 1 0 -0 -0 nan
nan 0 1 1 -0 -0 -0 -0 0 -0 -0 -0 -0 -1 1 0 2 1 -1 -0 -0 -0 -0 -0 0 1 1 2 3 2 2 2 2 2 3 2 2 1 -0 -0 0 -0 -0 nan
nan 0 0 0 -0 -0 -1 0 -0 1 -1 -2 0 1 0 1 0 -1 -2 -0 1 0 0 1 2 2 2 2 1 2 2 3 3 3 2 1 0 -0 0 0 1 0 -0 nan
nan 0 0 -0 0 -0 -0 -0 1 0 -1 0 0 -0 0 -0 -3 -2 1 1 1 1 1 2 1 1 2 2 2 3 3 3 2 1 -0 -0 -0 0 0 2 1 -0 0 nan
nan -0 0 -0 -0 -1 -0 0 0 -0 -0 0 0 0 -0 -2 1 1 2 1 1 1 1 1 1 2 3 3 2 2 1 1 -0 -0 -0 0 0 0 0 1 0 0 0 nan
nan -0 0 -0 -0 -0 -0 -0 -1 -0 -0 -0 -0 -0 -0 0 2 2 1 1 0 1 1 1 2 2 2 2 2 0 -1 -0 -0 0 1 1 0 0 1 0 0 0 -0 nan
nan -0 -0 0 -0 -0 -0 -0 0 0 -0 -0 0 1 -0 -1 -0 1 1 1 1 0 1 1 2 1 1 1 1 0 0 0 1 1 0 0 0 0 0 0 0 0 0 nan
nan 0 -0 -0 -0 -0 -1 -1 -0 0 0 -0 -0 1 1 -1 -1 0 1 2 2 2 1 1 1 0 0 0 1 1 1 1 0 0 0 0 0 0 0 0 0 0 0 nan
nan nan nan nan nan nan nan nan nan nan nan nan nan nan nan nan nan nan nan nan nan nan nan nan nan nan nan nan nan nan nan nan nan nan nan nan nan nan nan nan nan nan nan nan
Wind_Speed
5 4 9 11 9 3 4 4 6 4 5 2 7 12 17 14 10 13 19 24 26 27 28 24 19 16 15 13 15 26 32 30 27 27 25 22 21 17 16 17 15 14 17 15
3 16 10 8 5 6 4 4 4 7 8 7 11 10 12 6 8 20 29 25 26 27 32 28 23 21 18 13 16 30 35 32 30 28 27 23 21 21 17 18 17 15 13 11
17 2 16 9 6 8 6 8 6 10 5 4 3 7 7 6 13 27 29 27 29 32 37 33 28 26 22 18 18 28 36 34 29 25 23 22 20 18 16 18 18 15 11 10
13 20 7 6 13 10 12 11 15 6 2 5 5 8 7 8 11 8 26 28 28 35 40 37 33 29 24 18 21 29 35 33 29 25 22 23 20 15 17 18 18 15 12 11
13 12 19 10 13 17 9 9 12 9 6 2 4 4 6 6 7 13 15 26 30 33 44 41 35 29 24 21 23 29 33 31 28 24 25 20 16 16 16 17 16 15 14 12
23 15 12 17 13 16 7 3 3 3 3 13 8 6 13 8 12 8 12 29 33 33 40 40 34 29 26 24 24 29 29 29 28 26 24 19 17 18 18 18 17 16 16 12
8 23 5 7 6 8 8 5 2 2 3 9 12 6 29 2 10 11 13 31 30 33 38 42 39 35 30 29 31 29 30 30 29 27 23 20 20 18 17 16 16 17 15 13
14 7 29 10 9 9 17 15 6 9 5 7 7 12 11 8 17 21 27 31 25 33 36 45 43 36 32 31 32 30 30 30 29 26 23 21 20 19 18 15 15 15 12 11
15 14 2 18 5 10 6 12 16 5 3 2 5 7 7 7 9 14 18 20 29 35 40 46 41 37 33 30 29 26 25 26 27 25 24 23 23 23 20 15 14 13 12 12
6 5 10 17 16 12 12 16 8 5 7 5 5 6 8 5 12 10 7 23 33 37 39 44 42 38 33 30 26 24 22 23 25 25 26 25 25 23 18 17 15 13 12 13
13 6 4 15 20 30 7 10 5 7 6 10 5 9 9 13 11 11 14 29 36 40 44 47 43 38 33 30 27 24 23 23 26 27 27 26 25 23 19 18 16 14 13 14
29 4 6 21 17 25 21 23 25 12 11 8 3 19 5 9 10 12 18 28 30 36 38 43 43 37 34 32 28 26 26 26 27 28 27 27 23 21 20 18 16 15 16 16
21 10 5 4 2 6 27 27 26 10 4 15 6 22 11 6 6 19 19 22 23 28 32 38 39 36 35 33 30 28 28 27 28 28 28 26 24 23 21 18 18 17 18 19
26 17 24 20 25 8 14 26 26 22 12 24 20 28 2 7 8 7 18 25 24 30 35 38 40 37 34 33 31 30 30 29 28 28 27 25 23 21 21 22 22 21 22 21
17 23 22 28 13 14 22 22 28 27 30 24 34 22 20 8 10 13 22 23 24 30 34 39 43 39 34 32 31 29 29 29 29 29 28 26 25 26 27 26 27 25 23 20
15 15 23 26 24 19 12 15 21 30 33 25 28 21 8 17 22 5 14 19 26 29 36 41 44 38 35 34 34 34 31 30 31 31 31 31 32 32 30 28 27 23 19 17
10 14 6 26 21 7 21 32 24 16 24 26 24 34 6 12 14 15 22 25 28 32 36 42 44 41 38 35 37 39 35 34 36 36 33 36 36 33 29 25 20 17 12 2
17 13 8 15 6 20 24 21 24 24 18 19 25 6 18 17 28 37 38 30 32 33 35 40 44 43 40 38 42 44 40 39 39 35 34 36 32 27 22 16 10 4 13 14
6 16 12 8 13 8 14 19 18 18 30 18 19 20 16 22 27 17 31 29 27 25 26 35 41 42 39 40 44 43 44 42 39 37 33 30 26 23 17 3 13 18 20 17
18 6 9 5 10 15 32 8 19 12 23 26 26 18 10 16 14 9 30 36 33 28 24 27 36 37 38 39 37 38 39 39 38 35 34 29 23 11 4 13 20 14 15 12
14 8 13 7 4 7 5 4 25 13 15 18 31 29 34 17 24 26 26 28 28 26 28 30 29 30 31 31 32 35 34 34 37 35 28 18 12 8 17 24 9 14 12 10
10 10 6 6 7 12 7 5 19 7 3 7 24 26 26 33 30 27 25 24 23 23 23 23 24 24 26 26 27 33 40 40 34 25 18 15 12 11 10 10 13 12 11 10
7 8 8 11 7 4 6 6 14 7 5 6 20 24 34 30 30 34 29 24 23 23 21 21 22 26 28 32 34 40 35 30 24 21 18 15 11 11 12 12 11 8 6 8
4 4 4 4 6 5 8 6 7 7 5 5 11 23 28 28 28 28 27 26 22 19 20 23 28 33 35 35 32 27 26 24 19 16 15 13 11 12 12 10 7 6 5 4
5 12 7 3 6 6 17 18 13 8 9 8 15 21 21 25 29 28 26 27 26 28 29 31 34 37 36 31 23 20 18 17 16 16 14 14 13 12 12 11 9 7 4 5
5 6 10 11 10 15 13 34 27 21 27 26 19 17 20 22 30 32 32 33 35 35 33 32 32 32 30 24 20 19 17 17 18 18 17 15 15 14 14 12 11 6 6 4
Wind_Direction
197 174 205 196 206 208 166 199 217 252 247 227 239 241 255 254 235 236 211 209 214 221 224 220 207 217 213 205 207 208 206 205 208 208 210 208 207 214 220 227 231 244 245 247
198 228 211 209 200 196 182 177 247 288 250 173 263 258 256 240 244 233 224 212 215 213 222 217 206 215 215 227 223 210 209 209 208 211 215 215 211 208 226 237 233 242 238 225
209 239 172 189 192 192 213 218 241 233 346 294 284 274 267 268 223 244 240 234 218 223 224 213 207 213 212 214 216 209 210 211 209 208 211 213 211 213 227 233 233 236 222 210
230 227 171 183 218 178 228 198 226 225 268 243 171 270 243 234 243 215 227 227 227 228 225 215 207 209 208 218 211 208 207 206 207 211 213 223 228 233 226 228 233 227 214 213
215 171 196 214 213 188 222 167 199 215 238 261 222 282 244 212 235 238 242 233 237 233 224 216 209 207 208 214 209 202 199 202 211 223 227 220 217 232 234 225 226 215 214 218
225 191 184 218 203 192 165 79 73 87 148 249 203 206 242 204 214 228 237 237 243 234 227 215 209 207 207 206 201 197 198 208 218 223 215 211 220 220 222 227 217 219 213 217
202 226 260 197 168 177 176 136 161 225 223 246 176 202 254 320 212 209 215 233 239 232 225 208 205 204 204 205 203 201 202 211 214 210 212 203 213 216 222 227 223 220 223 219
205 210 214 205 180 175 186 187 176 197 199 245 172 228 245 209 215 232 245 243 238 228 222 207 205 204 206 209 209 211 206 207 209 209 197 198 207 210 218 221 216 220 222 208
199 231 176 195 169 149 195 202 201 103 17 65 220 295 292 234 237 236 231 224 228 224 215 207 203 205 208 210 205 204 204 203 205 200 190 198 203 207 213 211 203 209 207 204
199 244 199 204 200 225 187 183 177 203 186 246 234 254 229 212 219 230 215 211 223 219 213 208 203 206 209 207 202 204 205 207 201 193 194 201 201 207 207 206 212 216 212 219
202 170 284 157 200 203 184 202 197 175 185 219 247 254 200 201 208 209 221 220 219 214 215 210 203 206 206 202 203 205 202 204 198 196 197 199 203 207 208 215 219 223 229 236
206 151 198 204 209 209 203 202 205 208 206 238 172 252 185 200 210 202 229 232 229 225 216 211 204 200 201 203 205 204 202 203 201 199 202 205 209 211 216 223 226 235 244 249
192 208 189 137 210 206 207 212 215 201 92 216 162 257 187 183 194 224 228 237 234 220 211 207 202 200 203 206 207 205 204 205 200 200 203 206 212 214 221 230 235 242 243 239
192 209 214 216 214 189 200 214 215 208 215 230 220 236 152 204 209 228 228 238 229 216 211 207 200 202 207 210 210 208 207 207 201 199 203 209 215 221 226 231 235 238 234 238
199 217 216 229 228 209 217 217 213 212 219 217 236 234 228 206 205 216 229 231 214 209 204 207 204 205 210 210 211 212 213 212 207 207 211 215 218 223 225 227 229 225 221 234
204 221 220 232 226 243 251 233 221 221 225 230 239 250 169 220 245 236 243 222 205 199 207 208 207 210 214 214 217 216 215 213 215 217 220 220 217 221 223 221 217 217 231 211
187 207 178 233 226 220 250 238 231 238 230 225 228 237 190 211 219 219 228 221 217 214 214 211 211 217 222 222 222 219 218 215 213 216 219 218 218 217 210 202 204 189 166 115
223 206 194 235 144 217 238 237 234 233 237 237 246 229 216 217 220 230 233 237 230 226 222 218 218 223 227 226 222 220 220 219 213 210 210 210 204 196 187 173 144 79 319 309
238 221 228 221 220 270 269 227 208 214 245 227 239 239 226 217 229 236 229 230 227 231 237 233 228 229 229 230 225 220 218 217 210 204 202 189 182 173 146 356 324 314 303 294
188 225 174 155 221 219 242 169 193 191 253 232 226 220 196 183 223 219 224 233 236 227 230 221 235 231 229 229 229 223 218 214 206 194 171 166 158 162 277 304 302 300 259 246
183 190 217 204 225 272 249 237 163 175 245 204 214 214 213 208 222 224 218 221 220 218 215 215 218 219 221 223 222 212 202 190 172 165 162 165 200 235 280 297 235 224 238 244
169 171 186 181 195 244 200 147 175 219 204 228 207 208 201 208 212 205 186 182 184 183 184 189 191 194 197 200 195 177 164 160 161 165 182 197 222 264 260 209 218 225 225 242
181 178 170 186 208 202 193 198 225 183 159 185 184 183 186 178 174 169 169 164 160 163 168 172 180 174 165 161 171 160 161 164 175 186 196 198 178 196 211 206 208 214 252 280
206 141 139 121 223 219 228 162 141 174 190 169 170 175 169 154 159 158 155 153 160 157 174 169 162 156 156 163 165 169 173 180 185 185 175 181 205 194 190 188 197 226 245 287
186 159 158 266 254 233 244 238 218 163 143 102 159 161 157 156 157 158 155 155 162 165 165 161 162 159 160 166 170 175 176 182 184 184 192 194 189 187 193 192 201 207 260 309
172 167 185 215 186 195 213 223 221 222 209 173 170 162 158 166 166 167 165 167 164 161 159 161 163 166 170 170 174 183 185 190 195 193 187 187 190 197 201 201 204 235 280 305
Height
1501 1506 1507 1503 1503 1502 1505 1508 1509 1502 1495 1497 1499 1496 1483 1483 1482 1483 1485 1486 1487 1488 1490 1491 1492 1494 1496 1498 1500 1501 1503 1506 1510 1514 1517 1521 1524 1527 1530 1532 1534 1535 1536 1537
1503 1495 1493 1496 1499 1501 1503 1507 1509 1500 1493 1499 1495 1493 1482 1481 1480 1479 1479 1481 1483 1485 1485 1486 1488 1490 1492 1494 1496 1498 1500 1503 1507 1511 1515 1520 1523 1525 1527 1530 1531 1532 1533 1535
1488 1486 1487 1495 1499 1502 1503 1506 1507 1504 1495 1491 1490 1493 1483 1474 1475 1474 1475 1478 1479 1478 1478 1480 1484 1486 1488 1490 1492 1494 1498 1502 1506 1511 1515 1518 1520 1523 1525 1527 1529 1530 1532 1533
1486 1483 1487 1490 1492 1496 1504 1494 1495 1500 1504 1516 1491 1500 1485 1477 1471 1469 1468 1469 1472 1472 1473 1475 1478 1481 1484 1486 1489 1492 1495 1501 1505 1509 1512 1515 1517 1519 1522 1524 1527 1529 1530 1531
1470 1476 1482 1487 1476 1485 1485 1485 1493 1497 1501 1501 1496 1507 1485 1470 1473 1465 1461 1462 1463 1465 1466 1469 1474 1478 1480 1482 1485 1490 1493 1498 1502 1506 1509 1512 1515 1517 1519 1521 1523 1526 1528 1530
1462 1467 1471 1463 1474 1477 1480 1486 1491 1495 1500 1500 1493 1498 1462 1471 1459 1458 1454 1454 1455 1458 1460 1466 1471 1475 1476 1479 1483 1487 1491 1495 1498 1501 1504 1508 1511 1513 1515 1517 1520 1522 1524 1526
1464 1464 1462 1462 1471 1474 1479 1488 1511 1516 1517 1492 1477 1492 1430 1447 1446 1445 1447 1447 1449 1450 1453 1459 1463 1466 1472 1474 1478 1482 1485 1489 1493 1496 1500 1504 1507 1510 1513 1515 1518 1520 1522 1524
1464 1473 1452 1452 1454 1466 1470 1476 1496 1502 1513 1482 1478 1480 1443 1436 1437 1440 1441 1441 1444 1444 1445 1451 1454 1461 1465 1468 1472 1474 1477 1483 1487 1491 1496 1500 1504 1507 1510 1512 1515 1518 1520 1522
1448 1448 1433 1437 1443 1448 1466 1473 1455 1480 1490 1506 1479 1460 1442 1435 1435 1434 1435 1437 1437 1438 1440 1444 1452 1457 1461 1464 1466 1470 1473 1478 1483 1487 1492 1496 1500 1504 1507 1510 1513 1516 1518 1519
1424 1440 1425 1432 1443 1440 1440 1441 1470 1477 1491 1496 1474 1465 1444 1435 1433 1430 1432 1430 1430 1434 1438 1442 1447 1453 1457 1461 1465 1468 1471 1475 1479 1484 1488 1492 1496 1500 1504 1506 1509 1512 1515 1517
1416 1424 1426 1424 1426 1425 1442 1445 1450 1450 1468 1462 1470 1449 1424 1423 1423 1423 1422 1420 1423 1426 1429 1435 1440 1449 1454 1458 1462 1465 1468 1472 1476 1481 1486 1490 1493 1496 1499 1502 1505 1509 1512 1514
1401 1421 1430 1415 1410 1413 1416 1425 1428 1439 1452 1451 1466 1415 1407 1410 1414 1414 1415 1416 1420 1424 1428 1433 1438 1443 1450 1454 1458 1461 1465 1468 1473 1478 1483 1487 1490 1494 1497 1500 1504 1506 1508 1510
1402 1411 1429 1422 1418 1413 1410 1404 1411 1425 1440 1442 1465 1401 1400 1405 1409 1410 1412 1414 1416 1421 1425 1429 1438 1441 1445 1449 1453 1457 1461 1465 1470 1476 1481 1485 1488 1491 1494 1498 1501 1503 1505 1506
1390 1392 1397 1400 1393 1399 1408 1404 1404 1414 1433 1414 1423 1399 1405 1406 1406 1407 1409 1411 1413 1417 1421 1425 1432 1436 1440 1444 1448 1453 1457 1462 1467 1473 1477 1481 1484 1488 1491 1494 1497 1498 1500 1502
1385 1392 1392 1388 1391 1392 1391 1394 1395 1399 1398 1412 1386 1404 1400 1404 1404 1403 1404 1407 1410 1413 1417 1421 1426 1429 1434 1440 1445 1450 1455 1459 1464 1470 1474 1478 1483 1486 1488 1490 1492 1494 1495 1496
1376 1384 1387 1388 1388 1391 1399 1391 1390 1386 1382 1393 1388 1391 1391 1396 1397 1398 1400 1403 1405 1408 1410 1415 1420 1424 1429 1434 1439 1444 1450 1455 1460 1465 1469 1473 1477 1481 1483 1486 1488 1490 1493 1494
1374 1378 1391 1382 1386 1398 1399 1379 1377 1382 1379 1380 1391 1359 1387 1389 1390 1392 1394 1396 1398 1401 1404 1409 1415 1418 1422 1428 1433 1437 1443 1449 1454 1458 1463 1467 1471 1475 1479 1481 1484 1484 1485 1488
1363 1372 1379 1379 1388 1394 1361 1365 1368 1372 1373 1371 1370 1373 1376 1380 1381 1382 1384 1388 1391 1395 1398 1402 1407 1411 1417 1422 1427 1432 1439 1444 1448 1454 1458 1462 1467 1472 1478 1480 1483 1484 1491 1484
1366 1367 1372 1377 1380 1369 1359 1353 1359 1365 1354 1366 1363 1364 1368 1374 1378 1372 1378 1383 1385 1388 1392 1396 1400 1404 1410 1415 1419 1426 1432 1437 1443 1449 1454 1459 1464 1470 1475 1480 1485 1487 1485 1485
1358 1360 1366 1376 1370 1363 1318 1344 1349 1361 1363 1344 1352 1358 1364 1368 1372 1366 1371 1374 1378 1382 1386 1390 1395 1399 1404 1408 1414 1421 1426 1432 1438 1444 1451 1458 1464 1470 1473 1477 1479 1481 1480 1480
1343 1354 1355 1364 1365 1358 1340 1337 1342 1368 1334 1328 1333 1337 1345 1352 1346 1358 1364 1367 1372 1375 1379 1383 1389 1393 1398 1404 1409 1415 1422 1430 1437 1443 1450 1457 1461 1465 1469 1470 1473 1477 1478 1478
1331 1345 1351 1361 1360 1353 1331 1335 1334 1324 1320 1322 1320 1325 1331 1339 1345 1352 1357 1361 1366 1370 1376 1381 1385 1390 1396 1402 1408 1415 1423 1430 1438 1444 1449 1453 1456 1459 1463 1467 1472 1474 1476 1477
1326 1322 1333 1336 1333 1324 1322 1322 1322 1320 1319 1321 1319 1321 1325 1331 1340 1345 1352 1357 1363 1369 1374 1381 1386 1391 1398 1405 1411 1416 1425 1432 1439 1443 1448 1452 1454 1458 1462 1464 1468 1472 1475 1476
1312 1314 1323 1328 1320 1320 1320 1318 1319 1320 1321 1321 1320 1321 1326 1329 1337 1345 1351 1356 1364 1369 1380 1384 1390 1397 1402 1410 1416 1421 1427 1432 1438 1442 1446 1451 1455 1457 1462 1463 1466 1469 1471 1473
1303 1309 1317 1322 1318 1316 1313 1311 1317 1322 1323 1324 1326 1329 1330 1332 1339 1344 1352 1358 1366 1373 1382 1386 1392 1401 1409 1415 1419 1424 1429 1433 1437 1441 1445 1449 1453 1456 1462 1462 1465 1467 1469 1471
1294 1302 1308 1300 1301 1304 1302 1304 1313 1320 1322 1324 1329 1334 1336 1338 1342 1348 1356 1363 1368 1374 1380 1387 1395 1402 1409 1412 1419 1425 1429 1433 1437 1440 1444 1447 1452 1457 1461 1461 1461 1465 1465 1466